Whippany, NJ

12:59 AM EDT on August 29, 2016 (GMT -0400)
Morristown Municipal

Weather History for KMMU - April, 2014

Change the Weather History Date:

Saturday, April 5, 2014

  Actual Average Record
Temperature  
Mean Temperature 47 °F -  
Max Temperature 53 °F 56 °F 82 °F (1950)
Min Temperature 41 °F 37 °F 21 °F (1932)
Degree Days  
Heating Degree Days 18    
Moisture  
Dew Point 33 °F    
Average Humidity 69    
Maximum Humidity 93    
Minimum Humidity 38    
Precipitation  
Precipitation 0.00 in - - ()
Sea Level Pressure  
Sea Level Pressure 29.86 in    
Wind  
Wind Speed 5 mph (NW)    
Max Wind Speed 25 mph    
Max Gust Speed 38 mph    
Visibility 9 miles    
Events      
Averages and records for this station are not official NWS values.
T = Trace of Precipitation, MM = Missing Value Source: NWS Daily Summary

Daily Weather History Graph

Daily Weather History Graph

Search for Another Location

Airport or City:

Trip Planner

Search our weather history database for the weather conditions in past years. The results will help you decide how hot, cold, wet, or windy it might be!

Date:

Astronomy

Apr. 05, 2014 Rise Set
Actual Time 6:34 AM EDT 7:26 PM EDT
Civil Twilight 6:06 AM EDT 7:54 PM EDT
Nautical Twilight 5:33 AM EDT 8:27 PM EDT
Astronomical Twilight 4:59 AM EDT 9:02 PM EDT
Moon 10:38 AM EDT (4/5) 12:35 AM EDT (4/5)
Length of Visible Light 13h 47m
Length of Day
12h 52m
Waxing Crescent, 34% of the Moon is Illuminated
Apr 5
Waxing Crescent
Apr 7
First Quarter
Apr 15
Full
Apr 22
Last Quarter
Apr 29
New

Hourly Weather History & Observations

Time (EDT) Temp. Windchill Dew Point Humidity Pressure Visibility Wind Dir Wind Speed Gust Speed Precip Events Conditions
12:15 AM 41.0 °F 38.0 °F 39.2 °F 93% 29.77 in 5.0 mi NNE 4.6 mph - N/A   Overcast
12:35 AM 41.0 °F 38.0 °F 39.2 °F 93% 29.77 in 7.0 mi North 4.6 mph - N/A   Overcast
12:55 AM 41.0 °F 39.0 °F 39.2 °F 93% 29.76 in 10.0 mi North 3.5 mph - N/A   Overcast
1:15 AM 41.0 °F 38.0 °F 39.2 °F 93% 29.77 in 10.0 mi North 4.6 mph - N/A   Overcast
1:35 AM 41.0 °F 39.0 °F 39.2 °F 93% 29.74 in 10.0 mi NNE 3.5 mph - N/A   Overcast
1:55 AM 41.0 °F 37.1 °F 39.2 °F 93% 29.76 in 10.0 mi NW 5.8 mph - N/A   Overcast
2:15 AM 41.0 °F - 39.2 °F 93% 29.76 in 10.0 mi Calm Calm - N/A   Overcast
2:35 AM 42.8 °F 40.1 °F 39.2 °F 87% 29.75 in 10.0 mi North 4.6 mph - N/A   Overcast
2:55 AM 42.8 °F - 39.2 °F 87% 29.75 in 10.0 mi Calm Calm - N/A   Overcast
3:15 AM 42.8 °F - 39.2 °F 87% 29.74 in 10.0 mi Calm Calm - N/A   Overcast
3:35 AM 42.8 °F - 39.2 °F 87% 29.73 in 10.0 mi Calm Calm - N/A   Overcast
3:55 AM 42.8 °F - 39.2 °F 87% 29.74 in 10.0 mi Calm Calm - N/A   Overcast
4:15 AM 42.8 °F - 39.2 °F 87% 29.74 in 10.0 mi Calm Calm - N/A   Overcast
4:35 AM 42.8 °F - 39.2 °F 87% 29.75 in 10.0 mi Calm Calm - N/A   Overcast
4:55 AM 42.8 °F - 39.2 °F 87% 29.76 in 10.0 mi Calm Calm - N/A   Overcast
5:15 AM 42.8 °F - 39.2 °F 87% 29.77 in 10.0 mi Calm Calm - N/A   Overcast
5:35 AM 42.8 °F - 41.0 °F 93% 29.77 in 10.0 mi Calm Calm - N/A   Overcast
5:55 AM 42.8 °F - 39.2 °F 87% 29.77 in 7.0 mi Calm Calm - N/A   Overcast
6:15 AM 42.8 °F - 39.2 °F 87% 29.78 in 5.0 mi Calm Calm - N/A   Overcast
6:35 AM 42.8 °F - 39.2 °F 87% 29.79 in 5.0 mi Calm Calm - N/A   Overcast
7:45 AM 42.8 °F 40.1 °F 41.0 °F 93% 29.80 in 7.0 mi West 4.6 mph - N/A   Clear
8:45 AM 48.2 °F - 41.0 °F 76% 29.81 in 10.0 mi NW 13.8 mph 21.9 mph N/A   Clear
9:45 AM 50.0 °F - 37.4 °F 62% 29.83 in 10.0 mi NNW 11.5 mph 28.8 mph N/A   Partly Cloudy
10:45 AM 48.2 °F - 32.0 °F 54% 29.86 in 10.0 mi NW 13.8 mph 26.5 mph N/A   Overcast
11:45 AM 50.0 °F - 32.0 °F 50% 29.86 in 10.0 mi West 20.7 mph 27.6 mph N/A   Mostly Cloudy
12:45 PM 50.0 °F - 30.2 °F 47% 29.87 in 10.0 mi West 20.7 mph 29.9 mph N/A   Overcast
1:45 PM 51.8 °F - 28.4 °F 41% 29.87 in 10.0 mi NW 16.1 mph 27.6 mph N/A   Overcast
2:45 PM 53.6 °F - 28.4 °F 38% 29.87 in 10.0 mi WSW 17.3 mph 31.1 mph N/A   Overcast
3:45 PM 51.8 °F - 26.6 °F 38% 29.88 in 10.0 mi NW 25.3 mph 38.0 mph N/A   Mostly Cloudy
4:45 PM 50.0 °F - 26.6 °F 40% 29.91 in 10.0 mi NNW 9.2 mph 31.1 mph N/A   Scattered Clouds
5:45 PM 50.0 °F - 26.6 °F 40% 29.93 in 10.0 mi NNW 8.1 mph 23.0 mph N/A   Scattered Clouds
6:45 PM 48.2 °F - 26.6 °F 43% 29.95 in 10.0 mi WNW 16.1 mph 27.6 mph N/A   Partly Cloudy
7:45 PM 44.6 °F 39.2 °F 24.8 °F 46% 29.99 in 10.0 mi NW 10.4 mph 21.9 mph N/A   Partly Cloudy
8:45 PM 44.6 °F 40.2 °F 24.8 °F 46% 30.02 in 10.0 mi NNW 8.1 mph 19.6 mph N/A   Partly Cloudy
9:45 PM 42.8 °F 39.3 °F 23.0 °F 46% 30.06 in 10.0 mi NW 5.8 mph 17.3 mph N/A   Clear
10:15 PM 42.8 °F 38.6 °F 23.0 °F 46% 30.06 in 10.0 mi WNW 6.9 mph - N/A   Clear
10:35 PM 42.8 °F 41.1 °F 23.0 °F 46% 30.06 in 10.0 mi NW 3.5 mph - N/A   Clear
10:55 PM 41.0 °F - 23.0 °F 49% 30.07 in 10.0 mi Calm Calm - N/A   Clear
11:15 PM 41.0 °F 38.0 °F 23.0 °F 49% 30.08 in 10.0 mi NW 4.6 mph - N/A   Clear
11:35 PM 41.0 °F 35.2 °F 23.0 °F 49% 30.08 in 10.0 mi NW 9.2 mph - N/A   Clear
11:55 PM 41.0 °F 37.1 °F 23.0 °F 49% 30.09 in 10.0 mi WNW 5.8 mph - N/A   Clear